Retour au catalogue

DELTA 1 DEB

ActifSSO
NORAD 18302·DEBRIS·🇺🇸 United States

Lancé Mar 5, 1978 depuis Vandenberg Space Force Base

Loading…

Prochains Passages (prochaines 24 heures)

TLE

FraisSource: Space-Track

Époque: Sep 14, 2026, 04:53 UTC

1 18302U 78026HD  26257.20400002  .00000284  00000-0  24993-3 0  9991
2 18302  98.8803 338.7713 0234049 283.3623 101.5896 13.81430810 85443

Suivez DELTA 1 DEB en temps réel avec AllMySat

Download on the App Store